Weather in Sosedka

Russia / Penza Oblast     53°13′55″N   42°39′41″E
temp.,
°C
wind,
m/s
gust,
m/s
humid.,
%
clouds,
%
prec.,
mm/h
press.,
hPa
HPBL,
m
2 march, tue
tue200:00−5wsw7129591 0.1 1020585
03:00−2wsw7149396 0.1 1017637
06:00−1wsw71494100 0.2 1012582
09:000wsw81497100 0.3 1010747
12:00+1w71399100 0.8 1008658
15:00+1wnw61198100 1.1 1007590
18:00−1wnw41092100 0.1 1006329
21:00−3wnw499594 0.3 1007218
3 march, wed
wed300:00−4wnw489594 0.1 1007171
03:00−6wnw499697 0.1 1009204
06:00−5nw5119596 0.1 1009457
09:00−6nw6129281 0.1 1011645
12:00−5nw71088100 0.1 1012799
15:00−4nw61085100 0.1 1013904
18:00−7wnw498965 0.0 1014191
21:00−6w5119558 0.0 1015319
4 march, thu
thu400:00−4w5119596 0.1 1014466
03:00−5wsw5109598 0.1 1014331
06:00−4wsw6119498 0.1 1012482
09:00−3wsw8149199 0.2 1010635
12:000sw9158999 0.0 1008643
15:00+1sw10188399 0.0 1006736
18:00−1wsw8188079 0.0 1004742
21:00−1wsw7178142 0.0 1003598
5 march, fri
fri500:000wsw71391100 0.0 1002532
03:00+1wsw51098100 0.4 1002383
06:000wnw4699100 1.6 1003271
09:00−3n3597100 2.9 1005314
12:00−2nne1296100 0.6 1007211
15:00−2ene2396100 1.1 1008261
18:00−3e3698100 0.6 1007248
21:00−3e5897100 2.3 1005300
6 march, sat
sat600:00−3ne4797100 3.6 1003236
03:00−5nne61095100 4.2 1003428
06:00−6n51094100 0.3 1005433
09:00−6nw589498 0.4 1007452
12:00−5nw588799 0.1 1009763
15:00−5wnw6886100 0.2 1010912
18:00−9w349184 0.1 101158
21:00−11w369651 0.1 101392